This is the latest recevied weather packets stored in our database for station/object DJ2KUA-6. If no packets are shown the sender has not sent any weather packets the latest 10 day(s).
| Time | Temp. | Humidity | Pressure | Rain* | Wind** | Luminosity | Snow |
|---|---|---|---|---|---|---|---|
| 1787900137 | 21.67° C | 86% | 1062 hPa | 0 mm | - | - | - |
| 1787898997 | 21.11° C | 86% | 1063 hPa | 0 mm | - | - | - |
| 1787897859 | 21.11° C | 85% | 1063 hPa | 0 mm | - | - | - |
| 1787896717 | 20.56° C | 85% | 1063 hPa | 0.51 mm | - | - | - |
| 1787895580 | 20° C | 85% | 1064 hPa | 0.51 mm | - | - | - |
| 1787895577 | 20° C | 85% | 1064 hPa | 0.51 mm | - | - | - |
| 1787894439 | 20° C | 85% | 1064 hPa | 0.51 mm | - | - | - |
| 1787893299 | 20° C | 85% | 1063 hPa | 0 mm | - | - | - |
| 1787892157 | 20° C | 85% | 1062 hPa | 0 mm | - | - | - |
| 1787891018 | 20° C | 85% | 1062 hPa | 1.02 mm | - | - | - |
| 1787889876 | 20° C | 85% | 1062 hPa | 1.52 mm | - | - | - |
| 1787888738 | 20.56° C | 86% | 1064 hPa | 1.52 mm | - | - | - |
| 1787887598 | 20.56° C | 85% | 1063 hPa | 0.51 mm | - | - | - |
| 1787886457 | 20.56° C | 85% | 1062 hPa | 0.51 mm | - | - | - |
| 1787885320 | 21.11° C | 84% | 1062 hPa | 0 mm | - | - | - |
| 1787884178 | 21.11° C | 83% | 1062 hPa | 0 mm | - | - | - |
| 1787883039 | 21.11° C | 82% | 1063 hPa | 0 mm | - | - | - |
| 1787880757 | 21.67° C | 81% | 1063 hPa | 0 mm | - | - | - |
| 1787879618 | 21.67° C | 81% | 1063 hPa | 0 mm | - | - | - |
| 1787878478 | 21.67° C | 81% | 1063 hPa | 0 mm | - | - | - |
| 1787877338 | 21.67° C | 82% | 1063 hPa | 0 mm | - | - | - |
| 1787876199 | 21.67° C | 81% | 1063 hPa | 0 mm | - | - | - |
| 1787875060 | 21.67° C | 81% | 1063 hPa | 0 mm | - | - | - |
| 1787873919 | 22.22° C | 77% | 1063 hPa | 0 mm | - | - | - |
| 1787872781 | 23.89° C | 69% | 1062 hPa | 0 mm | - | - | - |
* Rain latest hour (hover to see other rain measurements)
** Current wind speed in m/s (hover to see current wind gust speed)